Weather in Krasnodar

Russia / Krasnodar Krai     45°02′07″N   38°58′31″E
temp.,
°C
wind,
m/s
gust,
m/s
humid.,
%
clouds,
%
prec.,
mm/h
press.,
hPa
HPBL,
m
27 october, wed
wed2700:00+5ene47630 0.0 1030239
03:00+4e37710 0.0 1029222
06:00+4e36775 0.0 1027204
09:00+6e34710 0.0 1027295
12:00+10ene22500 0.0 1026485
15:00+12e11400 0.0 1025617
18:00+10sse00490 0.0 102410
21:00+9wsw11550 0.0 102411
28 october, thu
thu2800:00+7w22590 0.0 102446
03:00+6wsw23650 0.0 102464
06:00+6w23670 0.0 102484
09:00+8w23570 0.0 1025207
12:00+12w24447 0.0 1025488
15:00+13wnw34449 0.0 10231011
18:00+11nw24440 0.0 1024134
21:00+8wnw2451100 0.0 1025111
29 october, fri
fri2900:00+7nw2354100 0.0 102487
03:00+7w126022 0.0 102572
06:00+6wsw11645 0.0 102518
09:00+8s11545 0.0 1026158
12:00+12ne223718 0.0 1025570
15:00+13ne343792 0.0 1025831
18:00+11ne474896 0.0 1026323
21:00+10ene495245 0.0 1026359
30 october, sat
sat3000:00+9ene385856 0.0 1027295
03:00+8ene38643 0.0 1027269
06:00+7ene49660 0.0 1028258
09:00+9e510545 0.0 1029437
12:00+13e694131 0.0 1028918
15:00+15e69325 0.0 10271298
18:00+12ene6113949 0.0 1027610
21:00+11e612440 0.0 1027518
31 october, sun
sun3100:00+10e511630 0.0 1026437
03:00+9e410750 0.0 1025391
06:00+8ene497795 0.0 1025330
09:00+9ene5861100 0.0 1024436
12:00+14ene5851100 0.0 1023682
15:00+16e5750100 0.0 1021919
18:00+13e61169100 0.0 1021487
21:00+12e5107191 0.0 1021395